Regional Weather Roundup
Issued by NWS

Home | Current Version | Previous Version | Graphics & Text | Print | Product List | Glossary On
Versions: 1 2 3 4 5 6 7 8 9 10 11 12 13 14 15 16 17 18 19 20 21 22 23 24 25 26 27 28 29 30 31 32 33 34 35 36 37 38 39 40 41 42 43 44 45 46 47 48 49 50
000
ASUS45 KBOU 210107
RWRCO

WEATHER ROUNDUP FOR COLORADO
NATIONAL WEATHER SERVICE DENVER/BOULDER CO
700 PM MDT MON OCT 20 2014

NOTE: "FAIR" INDICATES FEW OR NO CLOUDS BELOW 12000 FEET WITH NO
SIGNIFICANT WEATHER AND/OR OBSTRUCTIONS TO VISIBILITY.

COZ001>005-013-030-031-210200-
...NORTHWEST COLORADO...

CITY           SKY/WX    TMP DP  RH WIND       PRES   REMARKS
CRAIG          PTCLDY    52  38  58 CALM      30.11S
HAYDEN         PTCLDY    59  36  41 S5        30.13R
MEEKER         CLEAR     59  39  47 W3        30.12R
MOUNT WERNER   NOT AVBL
STEAMBOAT SPGS PTCLDY    56  37  47 E5        30.15S
WALDEN         PTCLDY    50  32  50 E7        30.21S
$$

COZ006>008-011-210200-
...WEST CENTRAL VALLEYS...

CITY           SKY/WX    TMP DP  RH WIND       PRES   REMARKS
GRAND JUNCTION PTCLDY    59  36  42 CALM      30.04R
MONTROSE       PTCLDY    60  41  49 E7        30.12R
EAGLE          CLEAR     57  41  54 VRB7      30.15R
RIFLE          LGT RAIN  60  37  42 S6        30.07S
DELTA          PTCLDY    68  39  35 SW5       30.07R
NUCLA          PTCLDY    59  37  44 N5        30.15S
$$

COZ017>023-064>068-210200-
...SOUTHWEST COLORADO...

CITY           SKY/WX    TMP DP  RH WIND       PRES   REMARKS
DURANGO        MOCLDY    54  43  66 NE7       30.18R
CORTEZ         CLOUDY    63  42  46 SE10      30.12R
PAGOSA SPRINGS MOCLDY    53  40  62 CALM      30.24S
TELLURIDE      PTCLDY    51  34  52 CALM      30.30S
WOLF CREEK PAS PTCLDY    36  28  75 CALM      30.46R
$$

COZ009-010-012-014-032>034-037-058>063-210200-
...CENTRAL COLORADO...

CITY           SKY/WX    TMP DP  RH WIND       PRES   REMARKS
ASPEN          MOCLDY    49  36  61 S6        30.21R
BUENA VISTA    PTCLDY    52  34  51 S3        30.24R
COPPER MTN     MOCLDY    41  32  70 S12       30.45S
BERTHOUD PASS  FAIR      34  32  93 W6        30.48F WCI  29
COTTONWOOD PAS PTCLDY    52  30  43 W9G18     30.34R
GUNNISON       PTCLDY    54  30  40 E12       30.24R
KREMMLING      PTCLDY    55  30  38 W3          N/A
LEADVILLE      CLOUDY    46  29  51 CALM      30.31S
MONARCH PASS   CLOUDY    37  30  75 SW10      30.56R
SALIDA         CLOUDY    60  37  42 SW6       30.30R
SUNLIGHT       PTCLDY    45  34  65 CALM      30.39S
WILKERSON PASS NOT AVBL
$$

COZ069>075-210200-
...SAN LUIS VALLEY/SANGRE DE CRISTO MOUNTAINS...

CITY           SKY/WX    TMP DP  RH WIND       PRES   REMARKS
ALAMOSA        CLOUDY    59  33  37 SW5       30.22R
LA VETA PASS   PTCLDY    43  30  61 N5        30.37F
SAGUACHE       MOCLDY    55  34  44 N7        30.24F
$$

COZ035-036-038>040-210200-
...NORTHERN COLORADO FRONT RANGE...

CITY           SKY/WX    TMP DP  RH WIND       PRES   REMARKS
DENVER INTL AP PTCLDY    62  33  33 S13       30.07R
DMNS CITY PARK   N/A     67  33  29 S6G15     30.05S
AURORA         PTCLDY    64  34  33 S20G28    30.08S
FRONT RANGE AP NOT AVBL
ERIE MUNI ARPT PTCLDY    60  41  48 CALM      30.04S
BOULDER MUN AP PTCLDY    63  43  48 W5        30.05S
CENTENNIAL     PTCLDY    62  35  36 S18       30.09R
BROOMFIELD     PTCLDY    68 N/A N/A CALM      30.08
FORT COLLINS   CLEAR     63  39  42 CALM      30.04S
LONGMONT       CLEAR     58  44  60 CALM      30.06S
$$

COZ041-046-047-076>085-087-088-210200-
...PIKES PEAK/PALMER DIVIDE AND SOUTHERN FOOTHILLS...

CITY           SKY/WX    TMP DP  RH WIND       PRES   REMARKS
COLO. SPRINGS  PTCLDY    57  34  41 SE9       30.18S
A. F. ACADEMY  CLEAR     58  33  39 SE12      30.19R
ELLICOTT       CLEAR     53  36  52 S8        30.18R
FALCON         CLEAR     52  32  47 S3        30.22S
FORT CARSON    CLEAR     58  35  40 S7        30.16R
LIMON          CLEAR     55  38  52 S10       30.14R
MONUMENT HILL  CLEAR     54  32  43 S20       30.18R
TRINIDAD       CLEAR     62  38  40 SE13      30.15R
$$

COZ042>045-048>051-090-091-210200-
...NORTHEAST COLORADO...

CITY           SKY/WX    TMP DP  RH WIND       PRES   REMARKS
GREELEY ARPT   CLEAR     64  36  34 SE8       30.03S
AKRON          CLEAR     61  37  41 S12       30.08R
BURLINGTON     CLEAR     60  40  47 S10       30.12S
WRAY           CLEAR     65  39  38 SE10      30.07R
STERLING       CLEAR     63  37  39 S8        30.03R
HOLYOKE        CLEAR     61  41  48 S8        30.06R
FORT MORGAN    CLEAR     63  32  31 SE9       30.06R
$$

COZ086-089-092>099-210200-
...SOUTHEAST COLORADO...

CITY           SKY/WX    TMP DP  RH WIND       PRES   REMARKS
PUEBLO         CLEAR     63  39  41 E8        30.09S
LA JUNTA       CLEAR     63  42  46 SE10      30.10R
LAMAR          CLEAR     60  43  53 SE10      30.08S
SPRINGFIELD      N/A     56  47  71 SE8       30.14R
$$


USA.gov is the U.S. government's official web portal to all federal, state and local government web resources and services.